When you browse on this site, cookies collect data to enhance your experience and personalize the content and advertising you see.
Visit our Privacy Policy to learn more. By continuing to use the site, you agree to this use of cookies and data.
  • In Hungary
  • List of Countries
  • For 7 days
  • Water Temperature
  • Weather Map
  • News
  • Weather Widgets
  • user-avatar
    Login

    Hourly Weather Sucre

    Today, 28 May, Thursday

    Time Temperature Precipitation Wind Pressure Humidity
    00:00 +11°C° 0 mm 1 mps 540 mmHg 46%
    01:00 +9°C° 0 mm 0 mps 539 mmHg 47%
    02:00 +9°C° 0 mm 0 mps 538 mmHg 49%
    03:00 +8°C° 0 mm 0 mps 538 mmHg 49%
    04:00 +8°C° 0 mm 0 mps 538 mmHg 49%
    05:00 +7°C° 0 mm 0 mps 537 mmHg 49%
    06:00 +9°C° 0 mm 0 mps 539 mmHg 46%
    07:00 +11°C° 0 mm 0 mps 540 mmHg 43%
    08:00 +12°C° 0 mm 0 mps 541 mmHg 40%
    09:00 +14°C° 0 mm 0 mps 542 mmHg 35%
    10:00 +18°C° 0 mm 1 mps 543 mmHg 29%
    11:00 +19°C° 0 mm 1 mps 544 mmHg 24%
    12:00 +20°C° 0 mm 1 mps 543 mmHg 22%
    13:00 +20°C° 0 mm 2 mps 543 mmHg 21%
    14:00 +21°C° 0 mm 2 mps 543 mmHg 19%
    15:00 +21°C° 0 mm 2 mps 543 mmHg 21%
    16:00 +20°C° 0 mm 2 mps 542 mmHg 23%
    17:00 +20°C° 0 mm 2 mps 542 mmHg 25%
    18:00 +18°C° 0 mm 2 mps 542 mmHg 31%
    19:00 +16°C° 0 mm 1 mps 541 mmHg 37%
    20:00 +14°C° 0 mm 1 mps 540 mmHg 44%
    21:00 +13°C° 0 mm 1 mps 540 mmHg 47%
    22:00 +12°C° 0 mm 0 mps 540 mmHg 50%
    23:00 +11°C° 0 mm 0 mps 540 mmHg 53%

    Tomorrow, 29 May, Friday

    Time Temperature Precipitation Wind Pressure Humidity
    00:00 +10°C° 0 mm 0 mps 539 mmHg 53%
    01:00 +10°C° 0 mm 0 mps 539 mmHg 53%
    02:00 +9°C° 0 mm 0 mps 538 mmHg 54%
    03:00 +9°C° 0 mm 0 mps 538 mmHg 53%
    04:00 +9°C° 0 mm 0 mps 538 mmHg 53%
    05:00 +8°C° 0 mm 0 mps 538 mmHg 53%
    06:00 +10°C° 0 mm 0 mps 539 mmHg 49%
    07:00 +11°C° 0 mm 0 mps 540 mmHg 45%
    08:00 +13°C° 0 mm 0 mps 542 mmHg 42%
    09:00 +15°C° 0 mm 0 mps 542 mmHg 34%
    10:00 +19°C° 0 mm 1 mps 543 mmHg 27%
    11:00 +21°C° 0 mm 1 mps 544 mmHg 20%
    12:00 +22°C° 0 mm 1 mps 544 mmHg 18%
    13:00 +22°C° 0 mm 1 mps 544 mmHg 17%
    14:00 +23°C° 0 mm 2 mps 543 mmHg 15%
    15:00 +23°C° 0 mm 2 mps 543 mmHg 18%
    16:00 +21°C° 0 mm 2 mps 543 mmHg 20%
    17:00 +21°C° 0 mm 2 mps 542 mmHg 23%
    18:00 +19°C° 0 mm 2 mps 542 mmHg 30%
    19:00 +18°C° 0 mm 1 mps 541 mmHg 37%
    20:00 +15°C° 0 mm 1 mps 540 mmHg 44%
    21:00 +14°C° 0 mm 1 mps 540 mmHg 48%
    22:00 +13°C° 0 mm 1 mps 540 mmHg 52%
    23:00 +11°C° 0 mm 0 mps 539 mmHg 55%

    Day after tomorrow, 30 May, Saturday

    Time Temperature Precipitation Wind Pressure Humidity
    00:00 +11°C° 0 mm 0 mps 539 mmHg 56%
    01:00 +10°C° 0 mm 0 mps 539 mmHg 57%
    02:00 +10°C° 0 mm 0 mps 538 mmHg 59%
    03:00 +10°C° 0 mm 0 mps 538 mmHg 60%
    04:00 +9°C° 0 mm 0 mps 537 mmHg 62%
    05:00 +9°C° 0 mm 0 mps 537 mmHg 63%
    06:00 +10°C° 0 mm 0 mps 538 mmHg 59%
    07:00 +11°C° 0 mm 0 mps 539 mmHg 54%
    08:00 +13°C° 0 mm 0 mps 541 mmHg 50%
    09:00 +15°C° 0 mm 1 mps 541 mmHg 45%
    10:00 +18°C° 0 mm 1 mps 542 mmHg 40%
    11:00 +18°C° 0 mm 2 mps 542 mmHg 35%
    12:00 +19°C° 0 mm 3 mps 542 mmHg 34%
    13:00 +20°C° 0 mm 3 mps 542 mmHg 32%
    14:00 +21°C° 0 mm 4 mps 542 mmHg 30%
    15:00 +21°C° 0 mm 4 mps 541 mmHg 31%
    16:00 +21°C° 0 mm 3 mps 541 mmHg 32%
    17:00 +20°C° 0 mm 3 mps 540 mmHg 33%
    18:00 +18°C° 0 mm 2 mps 540 mmHg 40%
    19:00 +18°C° 0 mm 1 mps 539 mmHg 46%
    20:00 +15°C° 0 mm 1 mps 539 mmHg 52%
    21:00 +14°C° 0 mm 1 mps 539 mmHg 54%
    22:00 +14°C° 0 mm 1 mps 539 mmHg 55%
    23:00 +13°C° 0 mm 1 mps 539 mmHg 56%

    31 May, Sunday

    Time Temperature Precipitation Wind Pressure Humidity
    00:00 +13°C° 0 mm 1 mps 539 mmHg 57%
    01:00 +11°C° 0 mm 0 mps 539 mmHg 58%
    02:00 +11°C° 0 mm 0 mps 539 mmHg 59%
    03:00 +10°C° 0 mm 0 mps 538 mmHg 59%
    04:00 +10°C° 0 mm 0 mps 538 mmHg 60%
    05:00 +10°C° 0 mm 0 mps 538 mmHg 60%
    06:00 +11°C° 0 mm 0 mps 539 mmHg 55%
    07:00 +12°C° 0 mm 0 mps 540 mmHg 50%
    08:00 +13°C° 0 mm 0 mps 542 mmHg 45%
    09:00 +16°C° 0 mm 1 mps 542 mmHg 40%
    10:00 +18°C° 0 mm 1 mps 543 mmHg 35%
    11:00 +20°C° 0 mm 1 mps 543 mmHg 30%
    12:00 +20°C° 0 mm 2 mps 543 mmHg 29%
    13:00 +21°C° 0 mm 2 mps 543 mmHg 28%
    14:00 +21°C° 0 mm 3 mps 543 mmHg 27%
    15:00 +21°C° 0 mm 3 mps 542 mmHg 29%
    16:00 +20°C° 0 mm 3 mps 542 mmHg 30%
    17:00 +20°C° 0 mm 3 mps 541 mmHg 32%
    18:00 +18°C° 0 mm 2 mps 541 mmHg 38%
    19:00 +16°C° 0 mm 2 mps 541 mmHg 45%
    20:00 +15°C° 0 mm 1 mps 541 mmHg 51%
    21:00 +14°C° 0 mm 1 mps 541 mmHg 55%
    22:00 +13°C° 0 mm 1 mps 541 mmHg 59%
    23:00 +12°C° 0 mm 1 mps 541 mmHg 63%

    1 June, Monday

    Time Temperature Precipitation Wind Pressure Humidity
    00:00 +12°C° 0 mm 1 mps 541 mmHg 66%
    01:00 +11°C° 0 mm 1 mps 540 mmHg 69%
    02:00 +11°C° 0 mm 1 mps 540 mmHg 73%
    03:00 +10°C° 0 mm 1 mps 539 mmHg 74%
    04:00 +10°C° 0 mm 1 mps 539 mmHg 76%
    05:00 +9°C° 0 mm 1 mps 539 mmHg 77%
    06:00 +10°C° 0 mm 1 mps 539 mmHg 75%
    07:00 +10°C° 0 mm 1 mps 540 mmHg 73%
    08:00 +11°C° 0 mm 1 mps 541 mmHg 70%
    09:00 +12°C° 0 mm 1 mps 541 mmHg 63%
    10:00 +14°C° 0 mm 2 mps 542 mmHg 55%
    11:00 +16°C° 0 mm 2 mps 543 mmHg 48%
    12:00 +17°C° 0 mm 3 mps 542 mmHg 44%
    13:00 +18°C° 0 mm 4 mps 542 mmHg 39%
    14:00 +19°C° 0 mm 4 mps 542 mmHg 35%
    15:00 +19°C° 0 mm 4 mps 542 mmHg 35%
    16:00 +19°C° 0 mm 4 mps 542 mmHg 35%
    17:00 +18°C° 0 mm 4 mps 542 mmHg 35%
    18:00 +17°C° 0 mm 3 mps 541 mmHg 43%
    19:00 +14°C° 0 mm 3 mps 541 mmHg 51%
    20:00 +13°C° 0 mm 2 mps 541 mmHg 60%
    21:00 +13°C° 0 mm 2 mps 541 mmHg 65%
    22:00 +12°C° 0 mm 1 mps 541 mmHg 71%
    23:00 +11°C° 0 mm 1 mps 541 mmHg 77%

    2 June, Tuesday

    Time Temperature Precipitation Wind Pressure Humidity
    00:00 +11°C° 0 mm 1 mps 541 mmHg 78%
    01:00 +10°C° 0 mm 1 mps 540 mmHg 78%
    02:00 +10°C° 0 mm 1 mps 540 mmHg 79%
    03:00 +10°C° 0 mm 1 mps 540 mmHg 78%
    04:00 +9°C° 0 mm 1 mps 540 mmHg 77%
    05:00 +9°C° 0 mm 1 mps 539 mmHg 75%
    06:00 +9°C° 0 mm 1 mps 540 mmHg 71%
    07:00 +10°C° 0 mm 1 mps 540 mmHg 67%
    08:00 +10°C° 0 mm 1 mps 541 mmHg 62%
    09:00 +12°C° 0 mm 1 mps 541 mmHg 51%
    10:00 +13°C° 0 mm 1 mps 542 mmHg 39%
    11:00 +15°C° 0 mm 1 mps 542 mmHg 28%
    12:00 +16°C° 0 mm 2 mps 542 mmHg 26%
    13:00 +18°C° 0 mm 3 mps 542 mmHg 24%
    14:00 +19°C° 0 mm 4 mps 541 mmHg 22%
    15:00 +19°C° 0 mm 3 mps 541 mmHg 24%
    16:00 +18°C° 0 mm 3 mps 541 mmHg 25%
    17:00 +18°C° 0 mm 2 mps 540 mmHg 27%
    18:00 +16°C° 0 mm 2 mps 540 mmHg 34%
    19:00 +14°C° 0 mm 2 mps 539 mmHg 40%
    20:00 +13°C° 0 mm 1 mps 539 mmHg 47%
    21:00 +12°C° 0 mm 2 mps 539 mmHg 51%
    22:00 +10°C° 0 mm 2 mps 539 mmHg 56%
    23:00 +10°C° 0 mm 2 mps 539 mmHg 60%
    Show more